Weather History for Pau, France

Change the Weather History Date:

Wednesday, February 20, 2013

  Actual Average Record
Temperature  
Mean Temperature 48 °F -  
Max Temperature 62 °F 56 °F 75 °F (1998)
Min Temperature 35 °F 38 °F 24 °F (2012)
Degree Days  
Heating Degree Days 16    
Moisture  
Dew Point 38 °F    
Average Humidity 71    
Maximum Humidity 100    
Minimum Humidity 39    
Precipitation  
Precipitation 0.00 in - - ()
Sea Level Pressure  
Sea Level Pressure 29.89 in    
Wind  
Wind Speed 3 mph ()    
Max Wind Speed 6 mph    
Max Gust Speed -    
Visibility 6.1 miles    
Events      
Averages and records for this station are not official NWS values.
T = Trace of Precipitation, MM = Missing Value Source: Averaged Metar Reports

Daily Weather History Graph

Daily Weather History Graph

Search for Another Location

Airport:

Trip Planner

Search our weather history database for the weather conditions in past years. The results will help you decide how hot, cold, wet, or windy it might be!

Date:

Astronomy

Feb. 20, 2013 Rise Set
Actual Time 7:52 AM CET 6:39 PM CET
Civil Twilight 7:23 AM CET 7:08 PM CET
Nautical Twilight 6:50 AM CET 7:41 PM CET
Astronomical Twilight 6:17 AM CET 8:14 PM CET
Moon 1:42 PM CET (2/20) 4:06 AM CET (2/20)
Length of Visible Light 11h 44m
Length of Day
10h 46m
Waxing Gibbous, 74% of the Moon is Illuminated
Feb 20
Waxing Gibbous
Feb 25
Full
Mar 4
Last Quarter
Mar 11
New
Mar 19
First Quarter

Hourly Weather History & Observations

Time (CET) Temp. Windchill Dew Point Humidity Pressure Visibility Wind Dir Wind Speed Gust Speed Precip Events Conditions
12:00 AM 41.0 °F 39.0 °F 39.2 °F 93% 29.89 in 6.2 mi SE 3.5 mph - N/A   Unknown
12:30 AM 41.0 °F - 39.2 °F 93% 29.89 in 6.2 mi ESE 2.3 mph - N/A   Unknown
1:30 AM 41.0 °F 39.0 °F 41.0 °F 100% 29.89 in 6.2 mi ESE 3.5 mph - N/A   Unknown
2:00 AM 41.0 °F 39.0 °F 39.2 °F 93% 29.89 in 5.0 mi SE 3.5 mph - N/A   Unknown
2:30 AM 39.2 °F 37.0 °F 37.4 °F 93% 29.89 in 5.0 mi SE 3.5 mph - N/A   Unknown
3:00 AM 39.2 °F 37.0 °F 37.4 °F 93% 29.89 in 5.0 mi SSE 3.5 mph - N/A   Unknown
3:30 AM 39.2 °F 37.0 °F 37.4 °F 93% 29.89 in 6.2 mi SSE 3.5 mph - N/A   Unknown
4:00 AM 37.4 °F 34.9 °F 35.6 °F 93% 29.89 in 5.0 mi ESE 3.5 mph - N/A   Unknown
4:30 AM 37.4 °F 34.9 °F 35.6 °F 93% 29.89 in 6.2 mi SE 3.5 mph - N/A   Unknown
5:00 AM 37.4 °F 34.9 °F 35.6 °F 93% 29.89 in 6.2 mi SSE 3.5 mph - N/A   Unknown
5:30 AM 35.6 °F 32.8 °F 33.8 °F 93% 29.89 in 6.2 mi SE 3.5 mph - N/A   Unknown
6:30 AM 35.6 °F 31.7 °F 33.8 °F 93% 29.89 in - SE 4.6 mph - N/A   Clear
7:00 AM 35.6 °F 31.7 °F 33.8 °F 93% 29.89 in - SE 4.6 mph - N/A   Clear
7:30 AM 35.6 °F 31.7 °F 33.8 °F 93% 29.89 in - SE 4.6 mph - N/A   Clear
8:00 AM 35.6 °F 31.7 °F 33.8 °F 93% 29.92 in - SE 4.6 mph - N/A   Clear
8:30 AM 37.4 °F 33.8 °F 35.6 °F 93% 29.92 in - SE 4.6 mph - N/A   Clear
9:00 AM 41.0 °F 39.0 °F 35.6 °F 81% 29.92 in - SE 3.5 mph - N/A   Clear
9:30 AM 44.6 °F 42.2 °F 37.4 °F 76% 29.92 in - SE 4.6 mph - N/A   Clear
10:00 AM 48.2 °F - 39.2 °F 71% 29.92 in - SE 3.5 mph - N/A   Clear
10:30 AM 51.8 °F - 39.2 °F 62% 29.92 in - Variable 2.3 mph - N/A   Clear
11:00 AM 53.6 °F - 39.2 °F 58% 29.92 in - Variable 1.2 mph - N/A   Clear
11:30 AM 55.4 °F - 41.0 °F 58% 29.92 in - Calm Calm - N/A   Clear
12:00 PM 55.4 °F - 42.8 °F 63% 29.92 in - Variable 1.2 mph - N/A   Clear
12:30 PM 57.2 °F - 44.6 °F 63% 29.92 in 6.2 mi Variable 1.2 mph - N/A   Partly Cloudy
1:00 PM 59.0 °F - 44.6 °F 59% 29.92 in 6.2 mi Variable 2.3 mph - N/A   Partly Cloudy
1:30 PM 59.0 °F - 46.4 °F 63% 29.92 in 6.2 mi NW 4.6 mph - N/A   Partly Cloudy
2:00 PM 59.0 °F - 42.8 °F 55% 29.89 in 6.2 mi Variable 3.5 mph - N/A   Partly Cloudy
2:30 PM 60.8 °F - 42.8 °F 52% 29.89 in 6.2 mi Variable 3.5 mph - N/A   Partly Cloudy
3:00 PM 60.8 °F - 41.0 °F 48% 29.86 in 6.2 mi Variable 3.5 mph - N/A   Partly Cloudy
3:30 PM 62.6 °F - 39.2 °F 42% 29.86 in 6.2 mi Variable 2.3 mph - N/A   Partly Cloudy
4:00 PM 60.8 °F - 35.6 °F 39% 29.86 in 6.2 mi Variable 3.5 mph - N/A   Partly Cloudy
4:30 PM 60.8 °F - 35.6 °F 39% 29.86 in 6.2 mi Variable 3.5 mph - N/A   Partly Cloudy
5:00 PM 60.8 °F - 35.6 °F 39% 29.86 in 6.2 mi North 5.8 mph - N/A   Partly Cloudy
5:30 PM 60.8 °F - 37.4 °F 42% 29.86 in 6.2 mi North 5.8 mph - N/A   Partly Cloudy
6:00 PM 57.2 °F - 37.4 °F 48% 29.86 in 6.2 mi North 4.6 mph - N/A   Partly Cloudy
6:30 PM 55.4 °F - 37.4 °F 51% 29.86 in 6.2 mi NNE 5.8 mph - N/A   Partly Cloudy
7:00 PM 53.6 °F - 35.6 °F 51% 29.86 in 6.2 mi ENE 4.6 mph - N/A   Partly Cloudy
7:30 PM 51.8 °F - 37.4 °F 58% 29.89 in 6.2 mi ENE 3.5 mph - N/A   Partly Cloudy
8:00 PM 50.0 °F - 37.4 °F 62% 29.89 in 6.2 mi ENE 2.3 mph - N/A   Partly Cloudy
8:30 PM 50.0 °F - 37.4 °F 62% 29.89 in - Variable 2.3 mph - N/A   Clear
9:00 PM 48.2 °F - 37.4 °F 66% 29.89 in - South 3.5 mph - N/A   Clear
9:30 PM 44.6 °F 42.2 °F 35.6 °F 71% 29.89 in 6.2 mi ESE 4.6 mph - N/A   Unknown
10:00 PM 44.6 °F 43.1 °F 37.4 °F 76% 29.89 in 6.2 mi ESE 3.5 mph - N/A   Unknown
10:30 PM 44.6 °F 43.1 °F 35.6 °F 71% 29.89 in 6.2 mi SE 3.5 mph - N/A   Unknown
11:00 PM 44.6 °F 43.1 °F 35.6 °F 71% 29.89 in 6.2 mi ESE 3.5 mph - N/A   Unknown
11:30 PM 42.8 °F 40.1 °F 35.6 °F 76% 29.89 in 6.2 mi ESE 4.6 mph - N/A   Unknown